Location: Saluda
(35.2377°N, 82.3468°W)
Time: 16:32:13
(UTC+00:00)

Transit 2A - Pass Details

Date: 11 October 2022
Orbit: 598 x 959 km, 66.7° (Epoch: 06 December)

Event Time Altitude Azimuth Distance (km) Brightness Sun altitude
Rises 11:28:39 0° 334° (NNW) 3,029 8.8 -1.6°
Reaches altitude 10° 11:30:53 10° 336° (NNW) 2,159 8.0 -1.1°
Maximum altitude 11:35:48 78° 63° (ENE) 769 6.3 -0.1°
Drops below altitude 10° 11:41:16 10° 150° (SSE) 2,388 9.2 1.0°
Sets 11:43:49 0° 151° (SSE) 3,375 9.9 1.5°
